Torna al catalogo

FENGYUN 1C DEB

AttivoLEO
NORAD 31899·DEBRIS·🇨🇳 China

Lanciato May 10, 1999 da Taiyuan Satellite Launch Center

Loading…

Prossimi Passaggi (prossime 24 ore)

TLE

AggiornatoSource: Space-Track

Epoca: Sep 13, 2026, 03:56 UTC

1 31899U 99025CLA 26256.16415813  .00001218  00000-0  10117-2 0  9999
2 31899 102.0828  41.4657 0183203 218.2918 140.5099 13.84221932713608

Traccia FENGYUN 1C DEB in tempo reale con AllMySat

Download on the App Store